We konden geen weer-waarchuwingen ophalen. Ga rechtstreeks naar de Meteoalarm site : www.meteoalarm.eu en controleer daar .



Onweer radar Meer informatie blitzortung!


Regen radar Meer informatie rain snow radar


Bezoek onze andere website:

Template documentation
and downloads

And another site



15 daagse weersverwachting Alta (NO)

  • Overzicht
  • Per uur
  • 15 dagen
  • Extra
  • Vergelijk
  • Kaarten
  • Dagkaart
  • Meer »
  • Info
  • Statistieken
  • Directe link
    Temp 6h Neerslag Wind  
 03:45     21:19    Daglengte: 17:34 Morgen
02:00
33.7 mm
2
08:00
11°
15.5 mm
1
14:00
13°
 
2
20:00
12°
 
2
 03:50     21:14    Daglengte: 17:24 Vrijdag 19 Aug
02:00
11°
 
4
08:00
13°
 
6
14:00
18°
 
7
20:00
18°
 
5
 03:55     21:09    Daglengte: 17:14 Zaterdag 20 Aug
02:00
18°
67.8 mm
4
08:00
17°
56.2 mm
2
14:00
24°
 
8
warningclass
20:00
22°
 
5
Locatie info
Region: Finnmark
Latitude: 69.9684°N
Longitude: 23.2708°E
65 masl
Postcode: 9511
Temp/Neerslag /Baro Onweer/Dauwpunt
    Temp Baro 1h Neerslag Dauwpunt Wind UV Bewolking  
 03:45     21:19    Daglengte: 17:34 Morgen
00:00
Voelt als: 7.1°
1011.6 hPa 17.6 mm
49%
7.0°
3
Windvlaag: -6 m/s
86%
01:00
Voelt als: 7.2°
1012.1 hPa 8.2 mm
82%
7.2°
3
Windvlaag: -5.4 m/s
86%
02:00
Voelt als: 7.7°
1012.4 hPa 7.9 mm
82%
7.4°
2
Windvlaag: -5.3 m/s
86%
03:00
Voelt als: 8.4°
1013.0 hPa 7.9 mm
82%
7.3°
2
Windvlaag: -3.7 m/s
85%
04:00
Voelt als: 9.1°
1013.5 hPa 7.6 mm
82%
7.3°
1
Windvlaag: -2 m/s
78%
05:00
Voelt als: 8.5°
1014.0 hPa
82%
7.1°
2
Windvlaag: 2.9 m/s
74%
06:00
Voelt als: 8.6°
1014.6 hPa
23%
7.0°
2
Windvlaag: 3.8 m/s
63%
07:00
10°
Voelt als: 9.8°
1015.4 hPa
17%
7.3°
1
Windvlaag: 2.6 m/s
58%
08:00
11°
1016.3 hPa
18%
7.9°
1
Windvlaag: 0.8 m/s
15%
09:00
11°
1017.1 hPa
15%
8.5°
1
Windvlaag: 0.7 m/s
33%
10:00
12°
1018.2 hPa
17%
8.8°
2
Windvlaag: 0.6 m/s
52%
11:00
12°
1019.0 hPa
19%
8.4°
2
Windvlaag: 0.1 m/s
41%
12:00
12°
1019.9 hPa
15%
8.5°
2
Windvlaag: -0.4 m/s
25%
13:00
13°
1020.5 hPa
15%
7.9°
2
Windvlaag: -0.3 m/s
14%
14:00
13°
1021.1 hPa
14%
7.5°
2
Windvlaag: 0.2 m/s
22%
15:00
13°
1021.3 hPa
15%
6.9°
3
Windvlaag: -0.1 m/s
26%
16:00
13°
1021.6 hPa
14%
6.1°
2
Windvlaag: -0 m/s
22%
17:00
13°
1021.7 hPa
14%
6.2°
2
Windvlaag: 0.1 m/s
15%
18:00
13°
1021.4 hPa
14%
6.2°
2
Windvlaag: -0.3 m/s
48%
19:00
13°
1021.5 hPa
14%
6.0°
2
Windvlaag: -1.5 m/s
28%
20:00
12°
1021.3 hPa
14%
6.6°
2
Windvlaag: -0.5 m/s
40%
21:00
11°
1021.5 hPa
14%
7.0°
2
Windvlaag: 2.1 m/s
16%
22:00
11°
1021.7 hPa
14%
6.6°
4
Windvlaag: 6.5 m/s
18%
23:00
10°
1021.5 hPa
14%
6.4°
4
Windvlaag: 7.6 m/s
33%
 03:50     21:14    Daglengte: 17:24 Vrijdag 19 Aug
00:00
10°
1021.3 hPa
14%
6.8°
4
Windvlaag: 8.4 m/s
3%
01:00
10°
1021.0 hPa
14%
7.0°
4
Windvlaag: 8.6 m/s
3%
02:00
11°
1020.7 hPa
14%
7.1°
4
Windvlaag: 9.5 m/s
10%
03:00
11°
1020.3 hPa
14%
6.6°
5
Windvlaag: 10 m/s
10%
04:00
10°
1020.0 hPa
14%
6.7°
5
Windvlaag: 10 m/s
14%
05:00
11°
1019.6 hPa
14%
7.1°
5
Windvlaag: 10.2 m/s
28%
06:00
11°
1019.2 hPa
14%
7.3°
5
Windvlaag: 10 m/s
21%
07:00
12°
1018.8 hPa
23%
7.8°
6
Windvlaag: 9.5 m/s
25%
08:00
13°
1017.9 hPa
14%
7.6°
6
Windvlaag: 9.3 m/s
38%
09:00
14°
1017.1 hPa
18%
7.6°
6
Windvlaag: 9.2 m/s
61%
10:00
14°
1016.6 hPa
22%
7.4°
6
Windvlaag: 9.2 m/s
71%
11:00
15°
1016.1 hPa
14%
7.6°
7
Windvlaag: 10.2 m/s
43%
12:00
16°
1015.4 hPa
14%
8.1°
7
Windvlaag: 10.6 m/s
22%
13:00
17°
1014.9 hPa
14%
9.1°
7
Windvlaag: 10.8 m/s
32%
14:00
18°
1014.4 hPa
14%
10.2°
7
Windvlaag: 10.8 m/s
57%
15:00
18°
1014.0 hPa
15%
10.7°
7
Windvlaag: 10.9 m/s
61%
16:00
18°
1013.6 hPa
18%
11.1°
7
Windvlaag: 10.4 m/s
67%
17:00
19°
1013.6 hPa
41%
13.5°
6
Windvlaag: 9.9 m/s
73%
18:00
19°
1013.1 hPa
82%
13.2°
6
Windvlaag: 9.8 m/s
85%
19:00
19°
1012.7 hPa
52%
13.7°
4
Windvlaag: 9.5 m/s
87%
20:00
18°
1012.7 hPa
100%
15.0°
5
Windvlaag: 10.2 m/s
87%
21:00
18°
1012.5 hPa 13.1 mm
100%
15.9°
4
Windvlaag: 9.6 m/s
89%
22:00
18°
1012.4 hPa 13.2 mm
100%
16.1°
5
Windvlaag: 9.6 m/s
90%
23:00
18°
1012.1 hPa 13.7 mm
100%
16.5°
5
Windvlaag: 9.6 m/s
82% warningclass
 03:55     21:09    Daglengte: 17:14 Zaterdag 20 Aug
00:00
18°
1012.2 hPa 14.1 mm
100%
16.4°
5
Windvlaag: 8.8 m/s
85%
01:00
18°
1011.9 hPa 13.7 mm
100%
16.2°
5
Windvlaag: 8.2 m/s
88%
02:00
18°
1012.0 hPa
87%
16.5°
4
Windvlaag: 7 m/s
78%
03:00
18°
1011.8 hPa
22%
16.7°
4
Windvlaag: 6.7 m/s
63%
04:00
17°
1011.8 hPa
21%
16.4°
4
Windvlaag: 6.5 m/s
70%
05:00
17°
1012.0 hPa 13.2 mm
21%
15.9°
3
Windvlaag: 6.8 m/s
81%
06:00
17°
1012.2 hPa 14.8 mm
21%
15.7°
2
Windvlaag: 7.1 m/s
88%
07:00
17°
1012.4 hPa 14.8 mm
22%
15.6°
2
Windvlaag: 4.2 m/s
99%
08:00
17°
1012.5 hPa 13.3 mm
21%
15.8°
2
Windvlaag: 1.3 m/s
74%
09:00
19°
1012.6 hPa
21%
16.3°
3
Windvlaag: 1.9 m/s
78%
10:00
19°
1012.5 hPa
21%
16.3°
3
Windvlaag: 2.5 m/s
68%
11:00
20°
1012.4 hPa
21%
15.7°
4
Windvlaag: 2.2 m/s
78%
12:00
23°
1011.4 hPa
21%
18.7°
5
Windvlaag: 12.4 m/s
53%
13:00
24°
1010.8 hPa
21%
18.9°
6
Windvlaag: 14 m/s
30%
14:00
24°
1010.4 hPa
68%
19.0°
8
Windvlaag: 18.4 m/s
33% warningclass
15:00
23°
1010.1 hPa
26%
19.3°
7
Windvlaag: 19.2 m/s
80% warningclass
16:00
22°
1009.9 hPa
42%
19.5°
6
Windvlaag: 15.6 m/s
86%
17:00
22°
1009.4 hPa
40%
19.3°
6
Windvlaag: 14 m/s
93%
18:00
22°
1008.9 hPa
45%
19.3°
6
Windvlaag: 9.2 m/s
98%
19:00
22°
1008.5 hPa
32%
18.1°
5
Windvlaag: 4.4 m/s
87%
20:00
22°
1008.1 hPa
25%
19.0°
5
Windvlaag: 3.2 m/s
89%
21:00
17°
1010.6 hPa 40.3 mm
100%
14.5°
1
Windvlaag: 3.9 m/s
77%
22:00
16°
1010.6 hPa 40.3 mm
100%
13.9°
1
Windvlaag: 7.1 m/s
89%
23:00
16°
1010.1 hPa 40.3 mm
100%
14.1°
0
Windvlaag: 5.7 m/s
96%
Temp/Neerslag /Baro Onweer/Dauwpunt
    Temp Baro Neerslag Dauwpunt Wind Bewolking  
 03:45     21:19    Daglengte: 17:34 Morgen
02:00
Voelt als: 7.7°
1012.4 hPa 33.7 mm 7.4°
2
86%
05:00
Voelt als: 8.5°
1014.0 hPa 15.5 mm 7.1°
2
74%
08:00
11°
1016.3 hPa   7.9°
1
15%
11:00
12°
1019.0 hPa   8.4°
2
41%
14:00
13°
1021.1 hPa   7.5°
2
22%
17:00
13°
1021.7 hPa   6.2°
2
15%
20:00
12°
1021.3 hPa   6.6°
2
40%
23:00
10°
1021.5 hPa   6.4°
4
33%
 03:50     21:14    Daglengte: 17:24 Vrijdag 19 Aug
02:00
11°
1020.7 hPa   7.1°
4
10%
05:00
11°
1019.6 hPa   7.1°
5
28%
08:00
13°
1017.9 hPa   7.6°
6
38%
11:00
15°
1016.1 hPa   7.6°
7
43%
14:00
18°
1014.4 hPa   10.2°
7
57%
17:00
19°
1013.6 hPa   13.5°
6
73%
20:00
18°
1012.7 hPa   15.0°
5
87%
23:00
18°
1012.1 hPa 40.0 mm 16.5°
5
82% warningclass
 03:55     21:09    Daglengte: 17:14 Zaterdag 20 Aug
02:00
18°
1012.0 hPa 27.8 mm 16.5°
4
78%
05:00
17°
1012.0 hPa 13.2 mm 15.9°
3
81%
08:00
17°
1012.5 hPa 42.9 mm 15.8°
2
74%
11:00
20°
1012.4 hPa   15.7°
4
78%
14:00
24°
1010.4 hPa   19.0°
8
33% warningclass
17:00
22°
1009.4 hPa   19.3°
6
93%
20:00
22°
1008.1 hPa   19.0°
5
89%
23:00
16°
1010.1 hPa 120.8 mm 14.1°
0
96%
 03:59     21:03    Daglengte: 17:04 Zondag 21 Aug
02:00
14°
1009.2 hPa 120.9 mm 12.4°
1
100%
05:00
16°
1008.4 hPa 41.5 mm 14.8°
5
1%
08:00
15°
1008.0 hPa 43.2 mm 14.8°
6
1%
11:00
16°
1007.3 hPa 44.8 mm 14.2°
8
1%
14:00
16°
1007.0 hPa 44.9 mm 14.4°
7
1%
17:00
16°
1006.7 hPa 45.0 mm 14.4°
7
1%
20:00
15°
1006.5 hPa 45.0 mm 14.1°
7
1%
23:00
15°
1006.5 hPa 45.1 mm 13.4°
7
1%
 04:04     20:58    Daglengte: 16:54 Maandag 22 Aug
02:00
14°
1007.0 hPa 45.1 mm 13.1°
5
1%
05:00
14°
1008.2 hPa 45.1 mm 12.8°
2
0%
08:00
14°
1009.1 hPa 45.1 mm 13.2°
1
1%
11:00
15°
1008.4 hPa 45.1 mm 12.6°
2
1%
14:00
17°
1007.5 hPa 45.3 mm 13.1°
4
1%
17:00
15°
1005.8 hPa 47.9 mm 12.0°
3
1%
20:00
12°
1005.2 hPa 50.6 mm 12.1°
2
1%
23:00
11°
1006.4 hPa 58.9 mm 9.3°
4
1%
 04:08     20:53    Daglengte: 16:45 Dinsdag 23 Aug
02:00
10°
1009.1 hPa 60.5 mm 7.6°
2
1%
05:00
10°
1011.8 hPa 61.8 mm 8.2°
5
1%
08:00
12°
1013.8 hPa 62.0 mm 6.7°
4
1%
11:00
13°
1015.2 hPa 62.1 mm 6.6°
3
1%
14:00
13°
1017.9 hPa 62.1 mm 6.8°
10
1%
17:00
13°
1019.8 hPa 62.1 mm 7.5°
8
0%
20:00
11°
1021.1 hPa 62.1 mm 8.0°
1
0%
23:00
10°
Voelt als: 8.4°
1022.0 hPa 62.1 mm 7.1°
3
1%
 04:13     20:48    Daglengte: 16:35 Woensdag 24 Aug
02:00
Voelt als: 8.9°
1022.6 hPa 62.1 mm 6.7°
1
1%
05:00
Voelt als: 8.8°
1022.3 hPa 62.1 mm 6.5°
2
0%
08:00
11°
1021.3 hPa 62.1 mm 6.4°
3
1%
11:00
14°
1018.6 hPa 62.1 mm 8.7°
7
1%
14:00
17°
1015.5 hPa 62.1 mm 11.1°
9
1%
17:00
17°
1014.2 hPa 62.1 mm 11.4°
10
1%
20:00
15°
1014.5 hPa 62.1 mm 11.4°
6
1%
23:00
13°
1014.3 hPa   11.4°
2
1%
 04:17     20:43    Daglengte: 16:26 Donderdag 25 Aug
02:00
12°
1013.0 hPa 128.0 mm 11.7°
2
1%
08:00
10°
Voelt als: 6.3°
1010.1 hPa 145.4 mm 4.7°
8
1%
14:00
10°
1011.3 hPa 150.8 mm 6.8°
3
1%
20:00
10°
1016.1 hPa 156.0 mm 8.0°
16
1%
 04:22     20:38    Daglengte: 16:16 Vrijdag 26 Aug
02:00
11°
1019.0 hPa 160.5 mm 6.9°
3
1%
08:00
11°
1020.3 hPa 160.7 mm 7.0°
4
1%
14:00
11°
1024.1 hPa 161.9 mm 6.0°
10
1%
20:00
10°
1026.9 hPa 162.5 mm 6.1°
2
1%
 04:26     20:33    Daglengte: 16:07 Zaterdag 27 Aug
02:00
Voelt als: 6.9°
1030.1 hPa 162.5 mm 5.0°
2
1%
08:00
10°
Voelt als: 8.5°
1030.3 hPa 162.5 mm 5.8°
3
1%
14:00
14°
1027.7 hPa 162.5 mm 7.1°
6
1%
20:00
11°
1019.1 hPa 0.6 mm 8.1°
2
78%
 04:30     20:28    Daglengte: 15:58 Zondag 28 Aug
02:00
Voelt als: 8.4°
1018.9 hPa 0.3 mm 7.1°
2
75%
08:00
11°
1018.5 hPa 0.5 mm 7.9°
2
76%
14:00
14°
1018.5 hPa 0.7 mm 8.1°
3
76%
20:00
11°
1017.9 hPa 0.5 mm 8.3°
2
78%
 04:35     20:23    Daglengte: 15:48 Maandag 29 Aug
02:00
10°
Voelt als: 8.3°
1016.9 hPa 1.0 mm 8.0°
3
79%
08:00
11°
1015.8 hPa 1.1 mm 8.2°
4
80%
14:00
13°
1016.0 hPa 0.2 mm 8.0°
5
76%
20:00
10°
1016.3 hPa 0.7 mm 7.4°
3
72%
 04:39     20:18    Daglengte: 15:39 Dinsdag 30 Aug
02:00
Voelt als: 6.9°
1016.3 hPa 0.7 mm 6.9°
2
77%
08:00
Voelt als: 8.2°
1015.8 hPa 0.7 mm 7.0°
2
79%
14:00
12°
1015.5 hPa 0.6 mm 7.4°
3
82%
20:00
10°
Voelt als: 9.3°
1015.0 hPa 0.9 mm 7.2°
1
83%
 04:43     20:13    Daglengte: 15:30 Woensdag 31 Aug
02:00
Voelt als: 7.2°
1014.6 hPa 0.2 mm 6.3°
1
72%
08:00
Voelt als: 8.9°
1014.2 hPa 0.7 mm 6.6°
1
78%
14:00
12°
1014.0 hPa 0.6 mm 6.8°
2
85%
20:00
Voelt als: 8.8°
1013.8 hPa 0.6 mm 6.7°
1
83%
 04:47     20:09    Daglengte: 15:22 Donderdag 01 Sep
02:00
Voelt als: 6.3°
1013.6 hPa 0.4 mm 5.9°
2
72%
08:00
Voelt als: 8.2°
1013.0 hPa 0.6 mm 6.3°
2
76%
14:00
11°
1012.3 hPa 0.5 mm 6.6°
2
81%
20:00
Voelt als: 8.6°
1011.1 hPa 0.6 mm 6.7°
1
88%
  CAPE Lifted Index Hail Supercell Tornado SRH 3km CL BTM PRES CL TOP PRES Swiss DWD icon SMHI TS
 03:45     21:19    Daglengte: 17:34 Morgen
00:00 6 J/kg 12.5 K 0 % 0 % 0 % 0 m²/s² 0 0 12.53 61
01:00 11 J/kg 12.7 K 0 % 0 % 0 % 0 m²/s² 0 0 12.7 61
02:00 24 J/kg 12.1 K 0 % 0 % 0 % 0 m²/s² 0 0 12.22 61
03:00 23 J/kg 12.4 K 0 % 0 % 0 % 0 m²/s² 0 0 12.58 61
04:00 21 J/kg 12.2 K 0 % 0 % 0 % 0 m²/s² 0 0 12.74 61
05:00 23 J/kg 11.7 K 0 % 0 % 0 % 0 m²/s² 0 0 13.11 3
06:00 19 J/kg 10.6 K 0 % 0 % 0 % 0 m²/s² 0 0 11.29 3
07:00 28 J/kg 9.1 K 0 % 0 % 0 % 0 m²/s² 0 0 10.66 3
08:00 47 J/kg 8.2 K 0 % 0 % 0 % 0 m²/s² 0 0 12.7 2
09:00 44 J/kg 8.4 K 0 % 0 % 0 % 0 m²/s² 0 0 13.62 2
10:00 37 J/kg 9.7 K 0 % 0 % 0 % 0 m²/s² 0 0 14.53 3
11:00 30 J/kg 11.5 K 0 % 0 % 0 % 0 m²/s² 0 0 16.9 2
12:00 20 J/kg 12.9 K 0 % 0 % 0 % 0 m²/s² 0 0 19.56 2
13:00 8 J/kg 13.6 K 0 % 0 % 0 % 0 m²/s² 0 0 20.98 2
14:00 5 J/kg 13.4 K 0 % 0 % 0 % 0 m²/s² 0 0 21.38 2
15:00 4 J/kg 12.6 K 0 % 0 % 0 % 0 m²/s² 0 0 19.77 2
16:00 0 J/kg 12.4 K 0 % 0 % 0 % 0 m²/s² 0 0 18.37 2
17:00 0 J/kg 12.2 K 0 % 0 % 0 % 0 m²/s² 0 0 18.02 2
18:00 0 J/kg 11.7 K 0 % 0 % 0 % 0 m²/s² 0 0 17.67 3
19:00 0 J/kg 11.2 K 0 % 0 % 0 % 0 m²/s² 0 0 17.2 2
20:00 0 J/kg 10.8 K 0 % 0 % 0 % 0 m²/s² 0 0 16.83 2
21:00 0 J/kg 11.1 K 0 % 0 % 0 % 0 m²/s² 0 0 17.31 2
22:00 0 J/kg 10.8 K 0 % 0 % 0 % 0 m²/s² 0 0 17.4 3
23:00 0 J/kg 10.4 K 0 % 0 % 0 % 0 m²/s² 0 0 17.45 3
 03:50     21:14    Daglengte: 17:24 Vrijdag 19 Aug
00:00 0 J/kg 10.4 K 0 % 0 % 0 % 0 m²/s² 0 0 18.26 2
01:00 0 J/kg 10.8 K 0 % 0 % 0 % 0 m²/s² 0 0 19.65 2
02:00 0 J/kg 10.4 K 0 % 0 % 0 % 0 m²/s² 0 0 19.64 3
03:00 0 J/kg 10.2 K 0 % 0 % 0 % 0 m²/s² 0 0 17.07 3
04:00 0 J/kg 9.6 K 0 % 0 % 0 % 0 m²/s² 0 0 13.71 3
05:00 0 J/kg 9.2 K 0 % 0 % 0 % 0 m²/s² 0 0 13.55 3
06:00 0 J/kg 9.2 K 0 % 0 % 0 % 0 m²/s² 0 0 14.66 3
07:00 0 J/kg 8.5 K 0 % 0 % 0 % 0 m²/s² 0 0 13.57 3
08:00 0 J/kg 7.7 K 0 % 0 % 0 % 0 m²/s² 0 0 12.05 3
09:00 0 J/kg 7.4 K 0 % 0 % 0 % 0 m²/s² 0 0 10.97 3
10:00 0 J/kg 6.5 K 0 % 0 % 0 % 0 m²/s² 0 0 8.99 3
11:00 0 J/kg 4.3 K 0 % 0 % 0 % 0 m²/s² 0 0 6.13 2
12:00 0 J/kg 3.6 K 0 % 0 % 0 % 0 m²/s² 0 0 4.74 2
13:00 1 J/kg 3.7 K 0 % 0 % 0 % 0 m²/s² 0 0 4.3 3
14:00 1 J/kg 3.0 K 0 % 0 % 0 % 0 m²/s² 0 0 3.42 3
15:00 0 J/kg 1.9 K 0 % 0 % 0 % 0 m²/s² 0 0 2.17 3
16:00 0 J/kg 1.4 K 0 % 0 % 0 % 0 m²/s² 0 0 1.58 3
17:00 47 J/kg 0.0 K 0 % 0 % 0 % 0 m²/s² 0 0 0.21 3
18:00 90 J/kg -0.2 K 0 % 0 % 0 % 0 m²/s² 0 0 -0.08 3
19:00 97 J/kg -0.5 K 0 % 0 % 0 % 0 m²/s² 0 0 -0.02 3
20:00 400 J/kg -1.9 K 0 % 0 % 0 % 0 m²/s² 0 0 -1.78 61
21:00 306 J/kg -1.6 K 0 % 0 % 0 % 0 m²/s² 0 0 -1.57 80
22:00 393 J/kg -2.6 K 0 % 0 % 0 % 0 m²/s² 0 0 -2.12 61
23:00 464 J/kg -2.4 K 0 % 0 % 0 % 0 m²/s² 0 0 -2.19 61
 03:55     21:09    Daglengte: 17:14 Zaterdag 20 Aug
00:00 436 J/kg -2.1 K 0 % 0 % 0 % 0 m²/s² 0 0 -1.62 61
01:00 151 J/kg -0.8 K 0 % 0 % 0 % 0 m²/s² 0 0 -0.62 61
02:00 138 J/kg -0.5 K 0 % 0 % 0 % 0 m²/s² 0 0 -0.11 3
03:00 189 J/kg -2.1 K 0 % 0 % 0 % 0 m²/s² 0 0 -1.59 3
04:00 105 J/kg -2.0 K 0 % 0 % 0 % 0 m²/s² 0 0 -1.73 3
05:00 41 J/kg -2.0 K 0 % 0 % 0 % 0 m²/s² 0 0 -1.91 2
06:00 0 J/kg -1.9 K 0 % 0 % 0 % 0 m²/s² 0 0 -1.69 3
07:00 0 J/kg -1.1 K 0 % 0 % 0 % 0 m²/s² 0 0 -0.65 3
08:00 0 J/kg -1.7 K 0 % 0 % 0 % 0 m²/s² 0 0 -1.07 2
09:00 218 J/kg -1.9 K 0 % 0 % 0 % 0 m²/s² 0 0 -1.33 3
10:00 348 J/kg -2.5 K 0 % 0 % 0 % 0 m²/s² 0 0 -1.84 2
11:00 329 J/kg -2.0 K 0 % 0 % 0 % 0 m²/s² 0 0 -1.13 2
12:00 265 J/kg -1.7 K 0 % 0 % 0 % 0 m²/s² 0 0 -0.95 2
13:00 273 J/kg -1.2 K 0 % 0 % 0 % 0 m²/s² 0 0 -1.2 2
14:00 80 J/kg -0.3 K 0 % 0 % 0 % 0 m²/s² 0 0 -0.12 2
15:00 174 J/kg -0.9 K 0 % 0 % 0 % 0 m²/s² 0 0 -0.78 3
16:00 151 J/kg -0.1 K 0 % 0 % 0 % 0 m²/s² 0 0 -0.01 3
17:00 320 J/kg -0.9 K 0 % 0 % 0 % 0 m²/s² 0 0 0.33 3
18:00 361 J/kg -1.4 K 0 % 0 % 0 % 0 m²/s² 0 0 0.94 3
19:00 88 J/kg -0.1 K 0 % 0 % 0 % 0 m²/s² 0 0 2.3 3
20:00 14 J/kg 0.9 K 0 % 0 % 0 % 0 m²/s² 0 0 3.45 3
21:00 0 J/kg 1.8 K 0 % 0 % 0 % 0 m²/s² 0 0 4.56
22:00 0 J/kg 1.7 K 0 % 0 % 0 % 0 m²/s² 0 0 4.46
23:00 0 J/kg 1.0 K 0 % 0 % 0 % 0 m²/s² 0 0 1.3
Temp Baro Wind Neerslag
  EWN Forecast EWN WRFDA DWD ICON FMI HIRLAM MET Norway GFS
 03:45     21:19    Daglengte: 17:34 Morgen
02:00 9.0° 1012.4 hPa 2.4 m/s 33.7 mm 8.3° 1011.3 hPa 2.0 m/s 104.9 mm 8.8° 1011.8 hPa 2.3 m/s 13.7 mm 8.7° 1013.2 hPa 1.9 m/s 0.0 mm 8.8° 1012.3 hPa 2.5 m/s
05:00 9.2° 1014.0 hPa 1.7 m/s 15.5 mm 8.8° 1012.8 hPa 2.3 m/s 110.8 mm 9.1° 1013.5 hPa 0.8 m/s 0.8 mm 9.0° 1014.6 hPa 1.7 m/s 0.0 mm 9.3° 1013.9 hPa 1.1 m/s
08:00 10.7° 1016.3 hPa 1.2 m/s 0.0 mm 10.0° 1015.2 hPa 3.9 m/s 111.3 mm 11.0° 1015.9 hPa 0.5 m/s 0.0 mm 9.4° 1016.6 hPa 2.1 m/s 0.0 mm 10.4° 1016.4 hPa 2.7 m/s
11:00 12.1° 1019.0 hPa 2.4 m/s 0.0 mm 11.2° 1017.5 hPa 4.7 m/s 111.7 mm 12.7° 1018.4 hPa 1.5 m/s 0.0 mm 10.5° 1019.2 hPa 2.5 m/s 0.0 mm 11.6° 1019.0 hPa 3.7 m/s
14:00 13.0° 1021.1 hPa 2.3 m/s 0.0 mm 12.2° 1019.2 hPa 3.9 m/s 111.9 mm 14.3° 1020.9 hPa 2.3 m/s 0.0 mm 11.1° 1021.4 hPa 3.1 m/s 0.0 mm 12.4° 1020.4 hPa 0.9 m/s
17:00 13.2° 1021.7 hPa 2.0 m/s 0.0 mm 12.3° 1019.8 hPa 1.7 m/s 111.9 mm 13.6° 1021.6 hPa 2.7 m/s 0.0 mm 11.9° 1022.7 hPa 0.4 m/s 0.0 mm 12.4° 1021.2 hPa 1.8 m/s
20:00 12.0° 1021.3 hPa 1.5 m/s 0.0 mm 12.0° 1019.6 hPa 1.6 m/s 111.9 mm 12.4° 1021.4 hPa 1.1 m/s 0.0 mm 10.9° 1022.7 hPa 2.5 m/s 0.0 mm 12.1° 1021.5 hPa 2.6 m/s
23:00 10.3° 1021.5 hPa 3.8 m/s 0.0 mm 11.3° 1019.6 hPa 5.0 m/s 111.9 mm 9.9° 1021.8 hPa 1.6 m/s 0.0 mm 8.9° 1022.8 hPa 3.5 m/s 0.0 mm 10.5° 1021.8 hPa 4.9 m/s
 03:50     21:14    Daglengte: 17:24 Vrijdag 19 Aug
02:00 10.6° 1020.7 hPa 4.4 m/s 0.0 mm 10.3° 1019.1 hPa 6.7 m/s 111.9 mm 10.6° 1021.0 hPa 2.5 m/s 0.0 mm 8.4° 1021.7 hPa 3.8 m/s 0.0 mm 9.5° 1021.5 hPa 5.7 m/s
05:00 10.5° 1019.6 hPa 4.7 m/s 0.0 mm 10.4° 1018.0 hPa 6.7 m/s 111.9 mm 10.5° 1019.9 hPa 3.1 m/s 0.0 mm 9.0° 1020.2 hPa 4.3 m/s 0.0 mm 9.5° 1020.2 hPa 5.2 m/s
08:00 12.8° 1017.9 hPa 6.2 m/s 0.0 mm 12.9° 1016.8 hPa 6.6 m/s 111.9 mm 13.0° 1018.7 hPa 4.9 m/s 0.0 mm 11.7° 1018.0 hPa 6.3 m/s 0.0 mm 11.9° 1018.7 hPa 7.5 m/s
11:00 15.2° 1016.1 hPa 7.0 m/s 0.0 mm 16.0° 1015.4 hPa 6.6 m/s 111.9 mm 16.5° 1017.0 hPa 7.2 m/s 0.0 mm 14.7° 1015.7 hPa 7.1 m/s 0.0 mm 14.2° 1016.7 hPa 8.7 m/s
14:00 17.6° 1014.4 hPa 6.9 m/s 0.0 mm 17.9° 1014.4 hPa 7.8 m/s 111.9 mm 19.0° 1015.3 hPa 6.7 m/s 0.0 mm 17.5° 1013.3 hPa 7.4 m/s 0.0 mm 15.8° 1014.8 hPa 9.2 m/s
17:00 19.0° 1013.6 hPa 6.3 m/s 0.0 mm 19.4° 1013.3 hPa 5.3 m/s 111.9 mm 19.3° 1014.3 hPa 6.2 m/s 0.0 mm 16.9° 1013.5 hPa 8.3 m/s
20:00 18.5° 1012.7 hPa 5.0 m/s 0.0 mm 19.0° 1012.5 hPa 5.0 m/s 112.1 mm 18.3° 1013.6 hPa 3.1 m/s 0.1 mm 16.4° 1013.2 hPa 5.2 m/s
23:00 17.8° 1012.1 hPa 4.9 m/s 40.0 mm 17.8° 1011.9 hPa 5.2 m/s 114.4 mm 17.5° 1013.1 hPa 2.4 m/s 2.8 mm 15.2° 1013.2 hPa 4.8 m/s
 03:55     21:09    Daglengte: 17:14 Zaterdag 20 Aug
02:00 17.8° 1012.0 hPa 4.1 m/s 27.8 mm 17.1° 1012.0 hPa 4.3 m/s 114.8 mm 17.9° 1012.6 hPa 3.0 m/s 3.5 mm 14.4° 1013.7 hPa 5.2 m/s
05:00 17.1° 1012.0 hPa 3.1 m/s 13.2 mm 16.9° 1010.5 hPa 6.4 m/s 116.7 mm 16.6° 1012.9 hPa 0.9 m/s 0.0 mm 14.0° 1013.5 hPa 4.7 m/s
08:00 17.5° 1012.5 hPa 2.0 m/s 42.9 mm 17.5° 1009.8 hPa 6.9 m/s 118.9 mm 19.5° 1013.1 hPa 1.2 m/s 0.0 mm 15.4° 1013.6 hPa 4.5 m/s
11:00 20.2° 1012.4 hPa 4.0 m/s 0.0 mm 20.7° 1008.2 hPa 8.5 m/s 119.0 mm 23.1° 1012.8 hPa 3.9 m/s 0.0 mm 16.8° 1013.1 hPa 7.8 m/s
14:00 23.6° 1010.4 hPa 7.5 m/s 0.0 mm 20.6° 1006.8 hPa 11.2 m/s 119.3 mm 24.3° 1011.3 hPa 6.6 m/s 0.0 mm 17.8° 1011.5 hPa 9.2 m/s
17:00 22.3° 1009.4 hPa 5.5 m/s 0.0 mm 19.3° 1007.2 hPa 7.7 m/s 119.9 mm 23.1° 1010.0 hPa 5.0 m/s 0.0 mm 17.0° 1010.2 hPa 7.3 m/s
20:00 21.8° 1008.1 hPa 4.8 m/s 0.0 mm 18.2° 1009.5 hPa 1.3 m/s 120.8 mm 22.7° 1007.8 hPa 5.6 m/s 0.0 mm 18.4° 1008.9 hPa 9.3 m/s
23:00 16.3° 1010.1 hPa 0.4 m/s 120.8 mm 16.3° 1010.1 hPa 0.4 m/s 120.8 mm 17.1° 1008.4 hPa 8.3 m/s
 03:59     21:03    Daglengte: 17:04 Zondag 21 Aug
02:00 14.4° 1009.2 hPa 0.9 m/s 120.9 mm 14.4° 1009.2 hPa 0.9 m/s 120.9 mm 15.7° 1008.6 hPa 4.5 m/s
05:00 15.5° 1008.4 hPa 5.1 m/s 41.5 mm 15.5° 1008.4 hPa 5.1 m/s 41.5 mm
08:00 15.3° 1008.0 hPa 6.1 m/s 43.2 mm 15.3° 1008.0 hPa 6.1 m/s 43.2 mm
11:00 15.7° 1007.3 hPa 8.1 m/s 44.8 mm 15.7° 1007.3 hPa 8.1 m/s 44.8 mm
14:00 15.9° 1007.0 hPa 7.4 m/s 44.9 mm 15.9° 1007.0 hPa 7.4 m/s 44.9 mm
17:00 15.6° 1006.7 hPa 7.1 m/s 45.0 mm 15.6° 1006.7 hPa 7.1 m/s 45.0 mm
20:00 15.5° 1006.5 hPa 7.0 m/s 45.0 mm 15.5° 1006.5 hPa 7.0 m/s 45.0 mm
23:00 15.2° 1006.5 hPa 6.7 m/s 45.1 mm 15.2° 1006.5 hPa 6.7 m/s 45.1 mm
 04:04     20:58    Daglengte: 16:54 Maandag 22 Aug
02:00 14.4° 1007.0 hPa 5.1 m/s 45.1 mm 14.4° 1007.0 hPa 5.1 m/s 45.1 mm
05:00 13.6° 1008.2 hPa 2.3 m/s 45.1 mm 13.6° 1008.2 hPa 2.3 m/s 45.1 mm
08:00 13.7° 1009.1 hPa 1.2 m/s 45.1 mm 13.6° 1009.1 hPa 1.2 m/s 45.1 mm
11:00 14.8° 1008.4 hPa 2.0 m/s 45.1 mm 14.8° 1008.4 hPa 2.0 m/s 45.1 mm
14:00 16.6° 1007.5 hPa 4.4 m/s 45.3 mm 16.6° 1007.5 hPa 4.4 m/s 45.3 mm
17:00 14.9° 1005.8 hPa 2.6 m/s 47.9 mm 14.9° 1005.8 hPa 2.6 m/s 47.9 mm
20:00 12.2° 1005.2 hPa 2.0 m/s 50.6 mm 12.2° 1005.2 hPa 2.0 m/s 50.6 mm
23:00 10.5° 1006.4 hPa 3.8 m/s 58.9 mm 10.5° 1006.4 hPa 3.8 m/s 58.9 mm
 04:08     20:53    Daglengte: 16:45 Dinsdag 23 Aug
02:00 10.0° 1009.1 hPa 2.0 m/s 60.5 mm 10.0° 1009.1 hPa 2.0 m/s 60.5 mm
05:00 10.1° 1011.8 hPa 4.7 m/s 61.8 mm 10.1° 1011.8 hPa 4.7 m/s 61.8 mm
08:00 11.5° 1013.8 hPa 4.5 m/s 62.0 mm 11.5° 1013.8 hPa 4.5 m/s 62.0 mm
11:00 12.7° 1015.2 hPa 3.5 m/s 62.1 mm 12.7° 1015.2 hPa 3.5 m/s 62.1 mm
14:00 13.1° 1017.9 hPa 9.8 m/s 62.1 mm 13.1° 1017.9 hPa 9.8 m/s 62.1 mm
17:00 12.6° 1019.8 hPa 7.6 m/s 62.1 mm 12.6° 1019.8 hPa 7.6 m/s 62.1 mm
20:00 11.1° 1021.1 hPa 0.7 m/s 62.1 mm 11.1° 1021.1 hPa 0.7 m/s 62.1 mm
23:00 10.0° 1022.0 hPa 3.3 m/s 62.1 mm 10.0° 1022.0 hPa 3.3 m/s 62.1 mm
 04:13     20:48    Daglengte: 16:35 Woensdag 24 Aug
02:00 8.9° 1022.6 hPa 0.7 m/s 62.1 mm 8.9° 1022.6 hPa 0.7 m/s 62.1 mm
05:00 9.3° 1022.3 hPa 1.5 m/s 62.1 mm 9.3° 1022.3 hPa 1.5 m/s 62.1 mm
08:00 11.2° 1021.3 hPa 3.4 m/s 62.1 mm 11.2° 1021.3 hPa 3.4 m/s 62.1 mm
11:00 14.2° 1018.6 hPa 6.6 m/s 62.1 mm 14.2° 1018.6 hPa 6.6 m/s 62.1 mm
14:00 17.2° 1015.5 hPa 9.4 m/s 62.1 mm 17.2° 1015.5 hPa 9.4 m/s 62.1 mm
17:00 16.8° 1014.2 hPa 9.6 m/s 62.1 mm 16.8° 1014.2 hPa 9.6 m/s 62.1 mm
20:00 15.3° 1014.5 hPa 5.9 m/s 62.1 mm 15.4° 1014.5 hPa 5.9 m/s 62.1 mm
23:00 13.3° 1014.3 hPa 2.5 m/s 62.8 mm 13.3° 1014.3 hPa 2.5 m/s 62.8 mm
 04:17     20:43    Daglengte: 16:26 Donderdag 25 Aug
02:00 12.2° 1013.0 hPa 1.6 m/s 65.2 mm 12.2° 1013.0 hPa 1.6 m/s 65.2 mm
08:00 9.7° 1010.1 hPa 7.7 m/s 74.6 mm 9.7° 1010.1 hPa 7.7 m/s 74.6 mm
14:00 10.1° 1011.3 hPa 2.9 m/s 76.2 mm 10.1° 1011.3 hPa 2.9 m/s 76.2 mm
20:00 10.2° 1016.1 hPa 16.2 m/s 79.9 mm 10.2° 1016.1 hPa 16.2 m/s 79.9 mm
 04:22     20:38    Daglengte: 16:16 Vrijdag 26 Aug
02:00 10.6° 1019.0 hPa 3.4 m/s 80.3 mm 10.6° 1019.0 hPa 3.4 m/s 80.3 mm
08:00 10.9° 1020.3 hPa 3.6 m/s 80.4 mm 10.9° 1020.3 hPa 3.6 m/s 80.4 mm
14:00 11.0° 1024.1 hPa 10.2 m/s 81.1 mm 11.0° 1024.1 hPa 10.2 m/s 81.1 mm
20:00 10.3° 1026.9 hPa 2.2 m/s 81.2 mm 10.3° 1026.9 hPa 2.2 m/s 81.2 mm
 04:26     20:33    Daglengte: 16:07 Zaterdag 27 Aug
02:00 8.0° 1030.1 hPa 2.0 m/s 81.2 mm 8.0° 1030.1 hPa 2.0 m/s 81.2 mm
08:00 9.8° 1030.3 hPa 2.6 m/s 81.2 mm 9.8° 1030.3 hPa 2.6 m/s 81.2 mm
14:00 13.5° 1027.7 hPa 6.0 m/s 81.2 mm 13.5° 1027.7 hPa 6.0 m/s 81.2 mm
20:00 11.0° 1019.1 hPa 1.6 m/s 0.6 mm
 04:30     20:28    Daglengte: 15:58 Zondag 28 Aug
02:00 9.2° 1018.9 hPa 1.8 m/s 0.3 mm
08:00 11.2° 1018.5 hPa 1.9 m/s 0.5 mm
14:00 13.9° 1018.5 hPa 3.1 m/s 0.7 mm
20:00 11.2° 1017.9 hPa 2.2 m/s 0.5 mm
 04:35     20:23    Daglengte: 15:48 Maandag 29 Aug
02:00 9.8° 1016.9 hPa 2.9 m/s 1.0 mm
08:00 10.8° 1015.8 hPa 3.7 m/s 1.1 mm
14:00 12.9° 1016.0 hPa 4.6 m/s 0.2 mm
20:00 10.0° 1016.3 hPa 3.2 m/s 0.7 mm
 04:39     20:18    Daglengte: 15:39 Dinsdag 30 Aug
02:00 8.3° 1016.3 hPa 2.3 m/s 0.7 mm
08:00 9.4° 1015.8 hPa 2.4 m/s 0.7 mm
14:00 12.0° 1015.5 hPa 2.7 m/s 0.6 mm
20:00 9.6° 1015.0 hPa 1.4 m/s 0.9 mm
 04:43     20:13    Daglengte: 15:30 Woensdag 31 Aug
02:00 7.7° 1014.6 hPa 1.3 m/s 0.2 mm
08:00 9.2° 1014.2 hPa 1.3 m/s 0.7 mm
14:00 11.6° 1014.0 hPa 1.6 m/s 0.6 mm
20:00 8.8° 1013.8 hPa 1.1 m/s 0.6 mm
 04:47     20:09    Daglengte: 15:22 Donderdag 01 Sep
02:00 7.1° 1013.6 hPa 1.5 m/s 0.4 mm
08:00 8.9° 1013.0 hPa 1.7 m/s 0.6 mm
14:00 11.2° 1012.3 hPa 2.1 m/s 0.5 mm
20:00 8.9° 1011.1 hPa 1.3 m/s 0.6 mm
FMI Hirlam - 7.5 km EWN WRFDA - 12 km DWD ICON - 7 km GFS - 25 km Basiskaart